Regional Weather Roundup
Issued by NWS Goodland, KS

Home | Current Version | Previous Version | Graphics & Text | Print | Product List | Glossary On
Versions: 1 2 3 4 5 6 7 8 9 10 11 12 13 14 15 16 17 18 19 20 21 22 23 24 25 26 27 28 29 30 31 32 33 34 35 36 37 38 39 40 41 42 43 44 45 46 47 48 49 50
000
ASUS43 KGLD 261508
RWRGLD

GOODLAND FORECAST AREA HOURLY WEATHER ROUNDUP
NATIONAL WEATHER SERVICE GOODLAND KS
900 AM MDT SAT JUL 26 2014

...OFFICIAL OBSERVATIONS...

CITY           SKY/WX    TMP DP  RH WIND       PRES   REMARKS
GOODLAND KS    SUNNY     83  66  56 NW8       30.01R
HILL CITY KS   SUNNY     85  66  53 VRB3      29.91S
IMPERIAL NEB   SUNNY     80  56  43 NW10      29.99R
MCCOOK NEB     SUNNY     84  64  50 W12       29.92R
AKRON CO       SUNNY     79  50  36 N16       30.11R
BURLINGTON CO  SUNNY     85  58  39 W10       30.06R
LIMON CO       SUNNY     84  47  27 N8        30.17R
$$

...UNOFFICIAL OBSERVATIONS...

CITY           SKY/WX    TMP DP  RH WIND       PRES   REMARKS
COLBY KS       SUNNY     84  66  54 W12       29.98R
GOVE KS          N/A     83  32  16 MISG        N/A
LENORA KS        N/A     80  32  17 MISG        N/A
NORTON KS      SUNNY     82  63  51 CALM      29.91S
OBERLIN KS     FAIR      88  57  35 W8        29.93S
TRIBUNE KS     SUNNY     79  54  41 S6        30.03R
WAKEENEY KS      N/A     84  60  44 MISG        N/A
TRENTON NEB      N/A     83  32  16 NW14        N/A
KIT CARSON CO    N/A     86  61  42 CALM        N/A
WRAY CO          N/A     84  52  32 NW16      30.03
YUMA CO          N/A     78  53  41 NW16        N/A
$$


USA.gov is the U.S. government's official web portal to all federal, state and local government web resources and services.